Tracking 18957 objects as of 22-Jan-2018
HD Live streaming from Space Station
objects crossing your sky now

RADUGA 7

Track RADUGA 7 now!
RADUGA 7 is classified as:


NORAD ID: 12003
Int'l Code: 1980-081A
Perigee: 35,717.2 km
Apogee: 35,818.6 km
Inclination: 12.6 °
Period: 1,434.8 minutes
Semi major axis: 42138 km
RCS: 7.9432 m2 (large)
Launch date: October 5, 1980
Source: Commonwealth of Independent States (former USSR) (CIS)
Launch site: TYURATAM MISSILE AND SPACE COMPLEX (TTMTR)
aabbcc
Your satellite tracking list
Your tracking list is empty




NASA's NSSDC Master Catalog

Two Line Element Set (TLE):
1 12003U 80081A   18022.40012897 -.00000276  00000-0  00000+0 0  9992
2 12003  12.6088 322.9942 0012034 254.4766 338.7972  1.00364023 92658
Source of the keplerian elements: AFSPC